Location: Bussy-Saint-Georges
(48.8410°N, 2.7017°E)
Time: 04:34:04
(UTC+00:00)

Cosmos 371 Rocket - Pass Details

Date: 18 October 2021
Orbit: 683 x 699 km, 74.0° (Epoch: 30 November)

Event Time Altitude Azimuth Distance (km) Brightness Sun altitude
Rises 19:04:30 0° 200° (SSW) 3,054 6.7 -22.2°
Reaches altitude 10° 19:06:48 10° 200° (SSW) 2,144 5.9 -22.6°
Maximum altitude 19:11:38 86° 111° (ESE) 704 3.2 -23.4°
Enters shadow 19:14:22 27° 25° (NNE) 1,347 4.6 -23.8°
